Regional Weather Roundup
Issued by NWS

Home | Current Version | Previous Version | Graphics & Text | Print | Product List | Glossary On
Versions: 1 2 3 4 5 6 7 8 9 10 11 12 13 14 15 16 17 18 19 20 21 22 23 24 25 26 27 28 29 30 31 32 33 34 35 36 37 38 39 40 41 42 43 44 45 46 47 48 49 50
000
ASUS45 KABQ 270301
RWRNM
WEATHER ROUNDUP FOR NEW MEXICO
NATIONAL WEATHER SERVICE ALBUQUERQUE NM
800 PM MST MON JAN 26 2015

NOTE: "FAIR" MEANS FEW OR NO CLOUDS BELOW 12,000 FEET AGL WITH NO
       SIGNIFICANT WEATHER OR OBSTRUCTIONS TO VISION.

      THIS PRODUCT IS RELEASED AS TWO VERSIONS.  ONE VERSION NEAR
      THE TOP OF THE HOUR CONTAINING PRELIMINARY DATA FROM ALBUQUERQUE
      AND OTHER STATIONS.  A FINAL VERSION WITH ADDITIONAL DATA IS
      ISSUED ABOUT 10 MINUTES AFTER THE HOUR.

NMZ501-503-504-510>518-270400-
NORTHWEST PLATEAU/NORTHCENTRAL MOUNTAINS

CITY           SKY/WX    TMP DP  RH WIND       PRES   REMARKS
FARMINGTON     CLEAR     38  24  57 E5        30.31S WCI  34
SANTA FE       CLEAR     41  24  51 NW3       30.37R
TAOS           PTCLDY    36  25  64 E7        30.41S WCI  30

$$
NMZ402-403-502-505>509-270400-
WESTCENTRAL MOUNTAINS/SOUTHWEST MOUNTAINS

CITY           SKY/WX    TMP DP  RH WIND       PRES   REMARKS
GALLUP         PTCLDY    36  25  64 S6        30.33S WCI  31
SILVER CITY    MOCLDY    39  27  60 N3        30.33S

$$
NMZ407-409-411-412-270400-
SOUTHERN DESERTS

CITY           SKY/WX    TMP DP  RH WIND       PRES   REMARKS
DEMING         MOCLDY    46  32  58 NE6       30.29R
HOLLOMAN AFB   MOCLDY    40  32  71 NE7       30.29S
ALAMOGORDO     MOCLDY    41  28  60 NE8       30.31R
T OR C         MOCLDY    48  27  44 NW8       30.31S

$$
NMZ519>523-270400-
CENTRAL VALLEYS/CENTRAL HIGHLANDS

CITY           SKY/WX    TMP DP  RH WIND       PRES   REMARKS
ALBUQUERQUE    PTCLDY    49  27  42 NE9       30.33S
DOUBLE EAGLE   CLEAR     37  25  60 VRB6      30.35S WCI  33
CLINES CORNERS MOCLDY    42  25  50 S6        30.37F
BELEN          FAIR      39  27  62 W3        30.33S
SOCORRO        NOT AVBL

$$
NMZ524>526-539-540-270400-
SOUTHCENTRAL MOUNTAINS

CITY           SKY/WX    TMP DP  RH WIND       PRES   REMARKS
RUIDOSO        NOT AVBL

$$
NMZ527>531-270400-
NORTHEAST HIGHLANDS/NORTHEAST PLAINS

CITY           SKY/WX    TMP DP  RH WIND       PRES   REMARKS
LAS VEGAS      PTCLDY    39  25  57 SW8       30.38S WCI  33
RATON          CLEAR     40  28  62 NE6       30.35R
CLAYTON        CLEAR     46  31  55 W9        30.28R

$$
NMZ532>537-270400-
EASTCENTRAL PLAINS

CITY           SKY/WX    TMP DP  RH WIND       PRES   REMARKS
TUCUMCARI      PTCLDY    45  32  60 W8        30.27R
CANNON AFB     CLEAR     45  34  66 N8        30.28R
CLOVIS AIRPORT CLEAR     48  32  53 NW8       30.28R

$$
NMZ028-029-538-270400-
SOUTHEAST PLAINS

CITY           SKY/WX    TMP DP  RH WIND       PRES   REMARKS
ROSWELL        CLEAR     43  36  76 W9        30.27S
ARTESIA        MOCLDY    45  36  70 W9        30.28S
CARLSBAD       MOCLDY    45  35  68 W7        30.26R
HOBBS          PTCLDY    46  32  57 W8        30.27R


$$



USA.gov is the U.S. government's official web portal to all federal, state and local government web resources and services.